Weather History for Sedona, AZ

Change the Weather History Date:

Monday, September 24, 2012

  Actual Average Record
Temperature  
Mean Temperature 78 °F -  
Max Temperature 87 °F 84 °F 91 °F (2014)
Min Temperature 68 °F 54 °F 59 °F (2013)
Cooling Degree Days 12    
Growing Degree Days 28 (Base 50)    
Moisture  
Dew Point 38 °F    
Average Humidity 26    
Maximum Humidity 37    
Minimum Humidity 17    
Precipitation  
Precipitation 0.00 in - - ()
Sea Level Pressure  
Sea Level Pressure 30.12 in    
Wind  
Wind Speed 9 mph (South)    
Max Wind Speed 17 mph    
Max Gust Speed 26 mph    
Visibility 10 miles    
Events      
Averages and records for this station are not official NWS values.
T = Trace of Precipitation, MM = Missing Value Source: NWS Daily Summary

Daily Weather History Graph

Daily Weather History Graph

Search for Another Location

Airport:

Trip Planner

Search our weather history database for the weather conditions in past years. The results will help you decide how hot, cold, wet, or windy it might be!

Date:

Astronomy

Sep. 24, 2012 Rise Set
Actual Time 6:17 AM MST 6:20 PM MST
Civil Twilight 5:51 AM MST 6:45 PM MST
Nautical Twilight 5:22 AM MST 7:14 PM MST
Astronomical Twilight 4:52 AM MST 7:44 PM MST
Moon 2:58 PM MST (9/24) 12:49 AM MST (9/24)
Length of Visible Light 12h 53m
Length of Day
12h 03m
Waxing Gibbous, 71% of the Moon is Illuminated
Sep 24
Waxing Gibbous
Sep 29
Full
Oct 8
Last Quarter
Oct 15
New
Oct 21
First Quarter

Hourly Weather History & Observations

Time (MST) Temp. Dew Point Humidity Pressure Visibility Wind Dir Wind Speed Gust Speed Precip Events Conditions
12:35 AM 69.8 °F 39.2 °F 33% 30.17 in 10.0 mi NNE 9.2 mph - N/A   Clear
12:55 AM 69.8 °F 39.2 °F 33% 30.16 in 10.0 mi NE 10.4 mph - N/A   Clear
1:15 AM 69.8 °F 39.2 °F 33% 30.17 in 10.0 mi NNE 10.4 mph - N/A   Clear
1:35 AM 69.8 °F 39.2 °F 33% 30.16 in 10.0 mi NE 9.2 mph - N/A   Clear
1:55 AM 69.8 °F 39.2 °F 33% 30.16 in 10.0 mi NE 8.1 mph - N/A   Mostly Cloudy
2:15 AM 69.8 °F 39.2 °F 33% 30.16 in 10.0 mi NE 10.4 mph - N/A   Mostly Cloudy
2:35 AM 69.8 °F 39.2 °F 33% 30.15 in 10.0 mi NE 8.1 mph - N/A   Scattered Clouds
2:55 AM 69.8 °F 39.2 °F 33% 30.15 in 10.0 mi NE 10.4 mph - N/A   Scattered Clouds
3:15 AM 69.8 °F 39.2 °F 33% 30.15 in 10.0 mi NE 6.9 mph - N/A   Mostly Cloudy
3:35 AM 69.8 °F 39.2 °F 33% 30.15 in 10.0 mi NE 6.9 mph - N/A   Mostly Cloudy
3:55 AM 69.8 °F 39.2 °F 33% 30.16 in 10.0 mi NE 9.2 mph - N/A   Mostly Cloudy
4:15 AM 69.8 °F 39.2 °F 33% 30.16 in 10.0 mi NE 9.2 mph - N/A   Mostly Cloudy
4:35 AM 69.8 °F 39.2 °F 33% 30.16 in 10.0 mi NNE 8.1 mph - N/A   Scattered Clouds
4:55 AM 68.0 °F 39.2 °F 35% 30.16 in 10.0 mi NE 9.2 mph - N/A   Mostly Cloudy
5:15 AM 68.0 °F 39.2 °F 35% 30.16 in 10.0 mi NE 10.4 mph - N/A   Mostly Cloudy
5:35 AM 68.0 °F 39.2 °F 35% 30.16 in 10.0 mi NE 10.4 mph - N/A   Mostly Cloudy
5:55 AM 68.0 °F 39.2 °F 35% 30.16 in 10.0 mi NE 9.2 mph - N/A   Scattered Clouds
6:15 AM 68.0 °F 39.2 °F 35% 30.17 in 10.0 mi NE 9.2 mph - N/A   Clear
6:35 AM 68.0 °F 39.2 °F 35% 30.17 in 10.0 mi NE 11.5 mph - N/A   Clear
6:55 AM 68.0 °F 39.2 °F 35% 30.17 in 10.0 mi NE 10.4 mph - N/A   Clear
7:15 AM 68.0 °F 41.0 °F 37% 30.17 in 10.0 mi NNE 11.5 mph - N/A   Clear
7:35 AM 69.8 °F 41.0 °F 35% 30.17 in 10.0 mi NNE 9.2 mph - N/A   Clear
7:55 AM 71.6 °F 41.0 °F 33% 30.17 in 10.0 mi NE 6.9 mph - N/A   Clear
8:15 AM 73.4 °F 41.0 °F 31% 30.18 in 10.0 mi ENE 3.5 mph - N/A   Clear
8:35 AM 77.0 °F 41.0 °F 28% 30.19 in 10.0 mi East 5.8 mph - N/A   Clear
8:55 AM 77.0 °F 42.8 °F 29% 30.19 in 10.0 mi ESE 4.6 mph - N/A   Clear
9:15 AM 78.8 °F 42.8 °F 28% 30.18 in 10.0 mi ESE 4.6 mph - N/A   Clear
9:35 AM 77.0 °F 42.8 °F 29% 30.20 in 10.0 mi WNW 11.5 mph - N/A   Mostly Cloudy
9:55 AM 75.2 °F 41.0 °F 29% 30.20 in 10.0 mi Calm Calm - N/A   Mostly Cloudy
10:35 AM 78.8 °F 41.0 °F 26% 30.19 in 10.0 mi Calm Calm - N/A   Scattered Clouds
10:55 AM 82.4 °F 42.8 °F 25% 30.18 in 10.0 mi SSE 3.5 mph - N/A   Scattered Clouds
11:15 AM 84.2 °F 41.0 °F 22% 30.17 in 10.0 mi SSE 5.8 mph - N/A   Scattered Clouds
11:35 AM 82.4 °F 39.2 °F 21% 30.17 in 10.0 mi SSW 5.8 mph - N/A   Scattered Clouds
11:55 AM 82.4 °F 37.4 °F 20% 30.15 in 10.0 mi SW 3.5 mph - N/A   Clear
12:15 PM 86.0 °F 37.4 °F 18% 30.14 in 10.0 mi SSE 5.8 mph - N/A   Clear
12:35 PM 87.8 °F 37.4 °F 17% 30.13 in 10.0 mi SSW 11.5 mph 16.1 mph N/A   Clear
12:55 PM 86.0 °F 37.4 °F 18% 30.11 in 10.0 mi South 17.3 mph - N/A   Clear
1:15 PM 87.8 °F 37.4 °F 17% 30.11 in 10.0 mi South 15.0 mph 19.6 mph N/A   Clear
1:35 PM 87.8 °F 37.4 °F 17% 30.10 in 10.0 mi South 9.2 mph 17.3 mph N/A   Scattered Clouds
1:55 PM 86.0 °F 35.6 °F 17% 30.08 in 10.0 mi South 3.5 mph 18.4 mph N/A   Scattered Clouds
2:15 PM 84.2 °F 35.6 °F 18% 30.08 in 10.0 mi SW 9.2 mph 18.4 mph N/A   Scattered Clouds
2:35 PM 84.2 °F 35.6 °F 18% 30.07 in 10.0 mi SSW 13.8 mph 17.3 mph N/A   Mostly Cloudy
2:55 PM 86.0 °F 35.6 °F 17% 30.06 in 10.0 mi SW 13.8 mph 20.7 mph N/A   Mostly Cloudy
3:15 PM 86.0 °F 35.6 °F 17% 30.05 in 10.0 mi SSW 11.5 mph 24.2 mph N/A   Scattered Clouds
3:35 PM 82.4 °F 35.6 °F 19% 30.05 in 10.0 mi SSW 13.8 mph 19.6 mph N/A   Mostly Cloudy
3:55 PM 86.0 °F 35.6 °F 17% 30.04 in 10.0 mi South 12.7 mph 24.2 mph N/A   Mostly Cloudy
4:15 PM 82.4 °F 33.8 °F 17% 30.04 in 10.0 mi West 15.0 mph 23.0 mph N/A   Scattered Clouds
4:35 PM 82.4 °F 33.8 °F 17% 30.04 in 10.0 mi WSW 11.5 mph 18.4 mph N/A   Clear
4:55 PM 82.4 °F 33.8 °F 17% 30.03 in 10.0 mi WSW 12.7 mph 20.7 mph N/A   Clear
5:15 PM 82.4 °F 33.8 °F 17% 30.04 in 10.0 mi WSW 10.4 mph 23.0 mph N/A   Scattered Clouds
5:55 PM 80.6 °F 33.8 °F 18% 30.04 in 10.0 mi WSW 13.8 mph 21.9 mph N/A   Mostly Cloudy
6:15 PM 80.6 °F 32.0 °F 17% 30.04 in 10.0 mi WSW 11.5 mph 23.0 mph N/A   Mostly Cloudy
6:35 PM 78.8 °F 32.0 °F 18% 30.03 in 10.0 mi WSW 16.1 mph 26.5 mph N/A   Scattered Clouds
6:55 PM 78.8 °F 32.0 °F 18% 30.04 in 10.0 mi WSW 10.4 mph 20.7 mph N/A   Mostly Cloudy
7:15 PM 78.8 °F 33.8 °F 20% 30.05 in 10.0 mi SSW 9.2 mph - N/A   Scattered Clouds
7:35 PM 77.0 °F 37.4 °F 24% 30.05 in 10.0 mi SSW 11.5 mph 17.3 mph N/A   Scattered Clouds
7:55 PM 77.0 °F 37.4 °F 24% 30.05 in 10.0 mi SSW 11.5 mph - N/A   Mostly Cloudy
8:15 PM 77.0 °F 37.4 °F 24% 30.05 in 10.0 mi SW 8.1 mph - N/A   Mostly Cloudy
8:35 PM 77.0 °F 37.4 °F 24% 30.06 in 10.0 mi SW 8.1 mph - N/A   Mostly Cloudy
8:55 PM 75.2 °F 37.4 °F 25% 30.06 in 10.0 mi SW 6.9 mph - N/A   Mostly Cloudy
9:15 PM 75.2 °F 39.2 °F 27% 30.06 in 10.0 mi SW 4.6 mph - N/A   Mostly Cloudy
9:55 PM 73.4 °F 37.4 °F 27% 30.07 in 10.0 mi SW 4.6 mph - N/A   Overcast
10:15 PM 73.4 °F 35.6 °F 25% 30.07 in 10.0 mi SW 5.8 mph - N/A   Overcast
10:35 PM 73.4 °F 35.6 °F 25% 30.06 in 10.0 mi SW 5.8 mph - N/A   Mostly Cloudy
10:55 PM 73.4 °F 33.8 °F 23% 30.06 in 10.0 mi SW 6.9 mph - N/A   Scattered Clouds
11:15 PM 73.4 °F 33.8 °F 23% 30.06 in 10.0 mi SW 4.6 mph - N/A   Clear
11:55 PM 71.6 °F 33.8 °F 25% 30.06 in 10.0 mi Calm Calm - N/A   Clear